Printer-friendly version
Follow the MPC on Twitter Follow the MPC on Facebook The MPC blog
Minor Planet Center

MPEC 2007-L39 : 2007 LT

The following Minor Planet Electronic Circular may be linked-to from your own Web pages, but must not otherwise be redistributed electronically.

A form allowing access to any MPEC is at the bottom of this page.


Read MPEC 2007-L38 Read MPEC 2007-L40


M.P.E.C. 2007-L39                                Issued 2007 June 11, 09:31 UT

     The Minor Planet Electronic Circulars contain information on unusual
         minor planets and routine data on comets.  They are published
   on behalf of Commission 20 of the International Astronomical Union by the
          Minor Planet Center, Smithsonian Astrophysical Observatory,
                          Cambridge, MA 02138, U.S.A.

             Prepared using the Tamkin Foundation Computer Network

                              MPC@CFA.HARVARD.EDU
          URL http://www.cfa.harvard.edu/iau/mpc.html  ISSN 1523-6714

                                    2007 LT

Observations:
     K07L00T* C2007 06 09.36517 20 34 09.40 -11 19 31.0          18.4 V EL039703
     K07L00T  C2007 06 09.37111 20 34 06.81 -11 19 45.0          18.0 V EL039703
     K07L00T  C2007 06 09.37706 20 34 04.33 -11 19 59.6          17.9 V EL039703
     K07L00T  C2007 06 09.38301 20 34 01.77 -11 20 14.0          18.2 V EL039703
     K07L00T  C2007 06 09.40701 20 33 51.40 -11 21 10.9          18.3 V EL039703
     K07L00T  C2007 06 09.41480 20 33 47.98 -11 21 27.6          18.2 V EL039703
     K07L00T  C2007 06 09.42263 20 33 44.67 -11 21 47.8          18.3 V EL039703
     K07L00T  C2007 06 09.98355 20 30 20.19 -11 43 10.1          18.0 V EL039A13
     K07L00T  C2007 06 09.98629 20 30 19.14 -11 43 16.9          18.1 V EL039A13
     K07L00T  C2007 06 10.00029 20 30 13.71 -11 43 48.6          18.0 V EL039A13
     K07L00T  C2007 06 10.00310 20 30 12.62 -11 43 54.9          18.3 V EL039A13
     K07L00T  C2007 06 10.02612 20 30 03.44 -11 44 47.6          18.4 V EL039151
     K07L00T  C2007 06 10.02735 20 30 02.94 -11 44 50.3          18.4 V EL039151
     K07L00T  C2007 06 10.02858 20 30 02.44 -11 44 52.9          18.2 V EL039151
     K07L00T  C2007 06 10.03109 20 30 01.47 -11 44 57.7          18.2 V EL039151
     K07L00T  C2007 06 10.03234 20 30 01.01 -11 45 00.4          18.4 V EL039151
     K07L00T  C2007 06 10.03358 20 30 00.54 -11 45 03.8          18.2 V EL039151
     K07L00T  C2007 06 10.03782 20 29 58.73 -11 45 16.2          18.3 V EL039A17
     K07L00T  C2007 06 10.04386 20 29 56.38 -11 45 29.4          18.1 V EL039A17
     K07L00T  C2007 06 10.05019 20 29 53.92 -11 45 42.6          18.3 V EL039A17
     K07L00T  C2007 06 10.31573 20 28 23.28 -11 54 38.3          18.3 R EL039651
     K07L00T  C2007 06 10.31682 20 28 22.86 -11 54 40.8          18.0 R EL039651
     K07L00T  C2007 06 10.31792 20 28 22.41 -11 54 43.2          18.2 R EL039651
     K07L00T  C2007 06 10.32173620 28 18.16 -11 55 09.0          19.2   EL039H55
     K07L00T  C2007 06 10.32297420 28 17.67 -11 55 11.6          19.2   EL039H55
     K07L00T 5C2007 06 10.32344 20 28 20.83 -11 54 57.9          18.2 R EL039673
     K07L00T  C2007 06 10.32421120 28 17.19 -11 55 14.3          19.1   EL039H55
     K07L00T  C2007 06 10.32582320 28 16.57 -11 55 17.8          19.0   EL039H55
     K07L00T  C2007 06 10.32705720 28 16.08 -11 55 20.4          19.4   EL039H55
     K07L00T  C2007 06 10.32837220 28 15.56 -11 55 23.3          19.2   EL039H55
     K07L00T  C2007 06 10.32990520 28 14.97 -11 55 26.4          19.3   EL039H55
     K07L00T 5C2007 06 10.32992 20 28 18.35 -11 55 12.2                 EL039673
     K07L00T 5C2007 06 10.33409 20 28 16.77 -11 55 21.3                 EL039673
     K07L00T 5C2007 06 10.34034 20 28 14.40 -11 55 35.3                 EL039673
     K07L00T  C2007 06 10.50862 20 27 16.34 -11 58 37.0          18.3 R EL039474
     K07L00T  C2007 06 10.51140 20 27 15.32 -11 58 43.2          18.4 R EL039474
     K07L00T  C2007 06 10.51360 20 27 14.51 -11 58 47.9          18.2 R EL039474

Observer details:
151 Eschenberg Observatory, Winterthur.  Observer M. Griesser.  0.40-m f/5.9
    Hypergraph + CCD.
474 Mount John Observatory, Lake Tekapo.  Observer A. C. Gilmore.  1.0-m f/7.7
    reflector + CCD.
651 Grasslands Observatory, Tucson.  Observer J. E. McGaha.  0.62-m f/5.1
    Newtonian reflector + CCD.
673 Table Mountain Observatory, Wrightwood.  Observer J. Young.  0.61-m f/16
    Cassegrain + CCD.
703 Catalina Sky Survey.  Observer R. E. Hill.  Measurers E. C. Beshore,
    A. Boattini, G. J. Garradd, A. R. Gibbs, A. D. Grauer, R. E. Hill,
    R. A. Kowalski, S. M. Larson, R. H. McNaught.  0.68-m Schmidt + CCD.
A13 Observatoire Naef, Marly.  Observer P. Kocher.  0.5-m f/3.3 Hypergraph
    + CCD.
A17 Guidestar Observatory, Weinheim.  Observers M. Emmerich, S. Melchert.
    0.36-m f/6 Schmidt-Cassegrain + CCD.
H55 Astronomical Research Observatory, Charleston.  Observer R. Holmes.
    0.81-m f/4.0 astrograph + CCD.

Orbital elements:
2007 LT                                                  Earth MOID = 0.0058 AU
Epoch 2007 Apr. 10.0 TT = JDT 2454200.5                 MPC
M 352.70629              (2000.0)            P               Q
n   0.53310059     Peri.  342.29991     -0.90348876     +0.42853117
a   1.5063640      Node   223.07753     -0.39175713     -0.83351339
e   0.3826607      Incl.    0.69731     -0.17388043     -0.34873552
P   1.85           H   22.4           G   0.15           U   8
Residuals in seconds of arc
070609 703  0.2-  0.6-    070610 151  0.7-  0.2-    070610 H55  0.3-  0.0
070609 703  0.8-  0.2-    070610 151  0.4-  0.6+    070610 H55  0.1-  0.1-
070609 703  0.2+  0.4-    070610 151  0.0   0.7+    070610 H55  0.3-  0.0
070609 703  0.2+  0.5-    070610 151  0.3+  0.1+    070610 H55  0.3-  0.1-
070609 703  0.3-  0.1+    070610 A17  0.2-  0.4-    070610 H55  0.2-  0.1+
070609 703  1.1-  1.9+    070610 A17  0.2+  0.2-    070610 673  0.1-  0.1+
070609 703  0.1-  0.2+    070610 A17  0.6+  0.6+    070610 673  0.0   0.2+
070609 A13  1.0-  0.1-    070610 651  0.3-  0.1+    070610 673  0.3+  0.0
070609 A13  0.9-  0.6-    070610 651  0.3-  0.0     070610 474  0.6-  0.1+
070610 A13  0.7-  0.6-    070610 651  0.7-  0.0     070610 474  0.6-  0.0
070610 A13  0.6-  0.6-    070610 H55  0.2-  0.0     070610 474  0.7-  0.0
070610 151  0.2-  0.4-    070610 H55  0.3-  0.0
070610 151  0.4-  0.3-    070610 673  0.1+  0.1+

Ephemeris:
2007 LT                  a,e,i = 1.51, 0.38, 1                   q = 0.9299
Date    TT    R. A. (2000) Decl.     Delta      r     Elong.  Phase     V
2007 06 09    20 36.47   -11 03.2    0.0607   1.054   128.7    48.7    18.3
2007 06 19    19 52.11   -15 18.2    0.101    1.104   149.7    27.6    18.9
2007 06 29    19 28.53   -17 18.5    0.146    1.158   165.0    13.1    19.3
2007 07 09    19 13.90   -18 32.3    0.199    1.215   176.0     3.3    19.6
2007 07 19    19 05.42   -19 22.7    0.260    1.273   169.1     8.7    20.6
2007 07 29    19 02.32   -19 57.1    0.332    1.330   159.0    15.8    21.5

Timothy B. Spahr             (C) Copyright 2007 MPC           M.P.E.C. 2007-L39

Read MPEC 2007-L38 Read MPEC 2007-L40


MPEC number:

Enter an MPEC number in one of the following forms:

  • 1997-B01 (the full form)
  • J97B01 (the packed version of the full form)
  • B01 (the abbreviated form)

Valid HTML 4.01!